TimeCDT,TemperatureF,Dew PointF,Humidity,Sea Level PressureIn,VisibilityMPH,Wind Direction,Wind SpeedMPH,Gust SpeedMPH,PrecipitationIn,Events,Conditions,WindDirDegrees,DateUTC
12:53 AM,71.1,68.0,90,30.18,10.0,East,3.5,-,N/A,,Mostly Cloudy,100,2012-09-14 05:53:00
1:53 AM,72.0,68.0,87,30.17,10.0,East,3.5,-,N/A,,Overcast,100,2012-09-14 06:53:00
2:53 AM,71.1,66.9,87,30.15,10.0,ESE,4.6,-,N/A,,Clear,110,2012-09-14 07:53:00
3:53 AM,70.0,66.9,90,30.16,10.0,Calm,Calm,-,N/A,,Mostly Cloudy,0,2012-09-14 08:53:00
4:53 AM,68.0,66.0,93,30.16,10.0,ESE,5.8,-,N/A,,Clear,120,2012-09-14 09:53:00
5:53 AM,70.0,66.9,90,30.17,10.0,Calm,Calm,-,N/A,,Clear,0,2012-09-14 10:53:00
6:53 AM,69.1,66.9,93,30.18,9.0,ESE,4.6,-,N/A,,Mostly Cloudy,120,2012-09-14 11:53:00
7:53 AM,71.6,68.0,88,30.17,9.0,SE,5.8,-,N/A,,Clear,130,2012-09-14 12:53:00
8:53 AM,77.0,68.0,74,30.19,10.0,SE,6.9,-,N/A,,Clear,140,2012-09-14 13:53:00
9:53 AM,81.0,66.9,62,30.20,10.0,South,6.9,-,N/A,,Clear,170,2012-09-14 14:53:00
10:53 AM,82.9,66.9,58,30.21,10.0,South,4.6,-,N/A,,Scattered Clouds,170,2012-09-14 15:53:00
11:53 AM,84.0,68.0,58,30.20,10.0,SSW,5.8,-,N/A,,Scattered Clouds,200,2012-09-14 16:53:00
12:53 PM,86.0,64.0,48,30.18,10.0,East,6.9,-,N/A,,Mostly Cloudy,90,2012-09-14 17:53:00
1:53 PM,86.0,64.0,48,30.17,10.0,ESE,3.5,-,N/A,,Overcast,120,2012-09-14 18:53:00
2:53 PM,86.0,64.0,48,30.14,10.0,Variable,3.5,-,N/A,,Overcast,0,2012-09-14 19:53:00
3:53 PM,82.9,69.1,63,30.13,10.0,North,4.6,-,N/A,,Overcast,350,2012-09-14 20:53:00
4:53 PM,82.0,69.1,65,30.13,10.0,NNW,4.6,-,N/A,,Overcast,340,2012-09-14 21:53:00
5:53 PM,81.0,69.1,67,30.12,10.0,NNW,4.6,-,N/A,,Overcast,340,2012-09-14 22:53:00
6:53 PM,80.1,69.1,69,30.13,10.0,North,5.8,-,N/A,,Overcast,350,2012-09-14 23:53:00
7:53 PM,78.1,70.0,76,30.14,10.0,North,5.8,-,N/A,,Partly Cloudy,350,2012-09-15 00:53:00
8:53 PM,77.0,70.0,79,30.16,10.0,North,4.6,-,N/A,,Mostly Cloudy,10,2012-09-15 01:53:00
9:53 PM,77.0,69.1,76,30.18,9.0,NE,5.8,-,N/A,,Mostly Cloudy,40,2012-09-15 02:53:00
10:53 PM,75.9,68.0,76,30.19,10.0,ENE,3.5,-,N/A,,Clear,70,2012-09-15 03:53:00
11:53 PM,75.0,66.9,76,30.19,10.0,Calm,Calm,-,N/A,,Overcast,0,2012-09-15 04:53:00